Reflectivity
-20 -20 -20 -20 -20 -20 -20 -20 -20 -20 -20 -20 -20 -20 -20 -20 -20 -20 -20 -8 -13 -16 -20 -20 5 -9 -20 -12 -20 -20 32 26 18 35 32 34 32 29 30 29 29 22 -14
-20 -20 -20 -20 -20 -20 -20 -20 -20 -20 -20 -20 -20 -20 -20 -20 -20 -20 -20 -15 -14 7 -20 -15 11 10 -20 -20 -20 16 25 28 22 22 30 30 33 37 35 32 28 8 -20
-20 -20 -20 -20 -20 -20 -20 -20 -20 -20 -20 -20 -20 -20 -20 -20 -20 -20 -20 -20 -17 -20 -20 -20 4 -10 -20 -20 15 -0 17 16 31 37 35 35 33 32 26 24 6 -20 -20
-20 -20 -20 -20 -20 -20 -20 -20 -20 -20 -20 -20 -20 -20 -20 -20 -20 -20 -20 -20 -20 5 12 -20 -20 -20 15 24 21 23 23 28 32 31 27 30 28 29 1 -4 -20 -18 -20
-20 -20 -20 -20 -20 -20 -20 -20 -20 -20 -20 -20 -20 -20 -20 -20 -20 -20 -20 -20 -20 -15 -20 -20 -20 -17 15 18 16 13 7 -2 17 23 17 21 27 8 -20 -20 -20 -3 -1
-20 -20 -20 -20 -20 -20 -20 -20 -20 -20 -20 -20 -20 -20 -20 -20 10 -20 -20 -20 -12 -20 -1 -20 -20 -19 -20 -20 -16 18 25 13 12 4 -1 -20 -10 -20 -6 -17 -20 -20 -20
-20 -20 -20 -20 -20 -20 -20 -20 -20 -20 -20 -20 -20 -20 -20 -20 9 5 5 -20 -20 -1 -1 -20 -20 -20 -20 -20 -3 12 21 18 17 -19 13 -20 -20 -20 -20 -20 -20 -20 -20
-20 -20 -20 -20 -20 -20 -20 -20 -20 -20 -20 -20 -20 -20 -20 -19 3 8 2 -20 -20 -20 -12 -20 -20 -20 -11 -20 -20 -12 -20 -20 -20 -20 -4 -11 -20 -20 -20 -20 -20 -20 -20
-20 -20 -20 -20 -20 -20 -20 -20 -20 -20 -20 -20 -20 -20 -9 -20 9 11 -17 -20 -20 -20 -20 -20 -20 -20 5 15 8 -20 -20 -20 -20 -20 -20 -20 -20 -20 -20 -20 -20 -20 -20
-20 -20 -20 -20 -20 -20 -20 -20 -20 -20 -20 -20 -20 -20 -20 -20 6 7 -18 -20 -20 -20 -20 -20 -20 -1 23 -20 -20 -20 -20 -20 -20 -20 -20 -20 -20 -20 -20 -20 -20 -20 -20
-20 -20 -20 -20 -20 -20 -20 -20 -20 -20 -20 -20 -20 -20 -20 -20 -12 8 -17 -15 -20 -20 -20 -20 -20 -20 -16 18 -20 -20 -20 -20 -20 -20 -20 -20 -20 -20 -20 -20 -20 -20 -20
-20 -20 -20 -20 -20 -20 -20 -20 -20 -20 -20 -20 -20 -20 -20 -20 -20 -10 -20 -20 -20 -18 -20 -20 -20 -20 -20 -20 -20 -20 -20 -20 -20 -20 -20 -20 -20 -20 -20 -20 -20 -20 -20
-20 -20 -20 -20 -20 -20 -20 -20 -20 -20 -20 -20 -20 -20 -20 -20 -20 -20 -20 -20 -20 -20 -20 -20 -20 -20 -20 -20 -20 -20 -20 -20 -20 -20 -20 -20 -20 -20 -20 -20 -20 -20 -20
-20 -20 -20 -20 -20 -20 -20 -20 -20 -20 -20 -20 -20 -20 -20 -20 -20 -20 -20 -20 -20 -20 -20 -20 -20 -20 -20 -20 -20 -20 -20 -20 -20 -20 -20 -20 -20 -20 -20 -20 -20 -20 -20
-20 -20 -20 -20 -20 -20 -20 -20 -20 -20 -20 -20 -20 -20 -20 -20 -20 -20 -20 -20 -20 -20 -20 -20 -20 -20 -20 -20 -20 -20 -20 -20 -20 -20 -20 -20 -20 -20 -20 -20 -20 -20 -20
-20 -20 -20 -20 -20 -20 -20 -20 -20 -20 -20 -20 -20 -20 -20 -20 -20 -20 -20 -20 -20 -20 -20 -20 -20 -20 -20 -20 -20 -20 -20 -20 -20 -20 -20 -20 -20 -20 -20 -20 -20 -20 -20
-20 -20 -20 -20 -20 -20 -20 -20 -20 -20 -20 -20 -20 -20 -20 -20 -20 -20 -20 -20 -20 -20 -20 -20 -20 -20 -20 -20 -20 -20 -20 -20 -20 -20 -20 -20 -20 -20 -20 -20 -20 -20 -20
-20 -20 -20 -20 -20 -20 -20 -20 -20 -20 -20 -20 -20 -20 -20 -20 -20 -20 -20 -20 -20 -20 -20 -20 -20 -20 -20 -20 -20 -20 -20 -20 -20 -20 -20 -20 -20 -20 -20 -20 -20 -20 -20
-20 -20 -20 -20 -20 -20 -20 -20 -20 -20 -20 -20 -20 -20 -20 -20 -20 -20 -20 -20 -20 -20 -20 -20 -20 -20 -20 -20 -20 -20 -20 -20 -20 -20 -20 -20 -20 -20 -20 -20 -15 -2 -20
-20 -20 -20 -20 -20 -20 -20 -20 -20 -20 -20 -20 -20 -20 -20 -20 -20 -20 -20 -20 -20 -20 -20 -20 -20 -20 -20 -20 -20 -20 -20 -20 -20 -20 -20 -20 -20 1 -20 -20 -20 5 -4
-20 -20 -20 -20 -20 -20 -20 -20 -20 -20 -20 -20 -20 -20 -20 -20 -20 -20 -20 -20 -20 -20 -20 -20 -20 -20 -20 -20 -20 -20 -20 -20 -20 -20 -20 -20 -19 -6 18 -3 16 20 26
-20 -20 -20 -20 -20 -20 -20 -20 -20 -20 -20 -20 -20 -20 -20 -20 -20 -20 -20 -20 -20 -20 -20 -20 -20 -20 -19 -20 -20 -20 2 23 -6 -4 -9 -4 25 23 24 31 32 23 32
-20 -20 -20 -20 -20 -20 -20 -20 -20 -20 -20 -20 -20 -20 -20 -20 -20 -20 -20 -20 -20 -20 -20 -20 -20 -8 -20 -20 -19 -10 -20 8 5 -11 -13 -20 -20 -9 16 34 30 26 32
-20 -3 -20 -20 -20 -20 -20 -20 -20 -20 -20 -20 -20 -20 -20 -20 -20 -20 -20 -20 -20 -20 -20 -20 -20 -20 -20 -20 -20 -20 -20 -20 -14 -17 -18 -15 -20 6 28 33 31 37 32
-20 -20 -20 -20 -20 -20 -20 -20 -20 -20 -20 -20 -20 -20 -20 -20 -20 -20 -20 -20 -20 -20 -20 -20 -20 -20 -20 -20 -20 -20 -20 -20 -20 -6 -13 -19 12 34 27 23 32 33 22
-20 -20 -19 -20 -20 -20 -20 -20 -20 -20 -20 -20 -20 -2 20 -20 -6 -20 -20 -20 -20 -20 -20 -20 -20 -20 -20 -20 -20 -10 -20 -20 -0 9 -17 24 28 24 28 27 31 19 14
Wind_Speed
5 4 5 5 5 5 4 4 4 3 3 3 3 4 4 5 4 5 3 3 5 5 5 6 7 7 6 7 5 6 7 8 9 6 7 10 11 11 8 6 5 3 4
5 4 4 5 5 5 4 4 4 3 2 3 4 5 5 4 4 5 4 5 6 5 6 7 8 7 8 7 7 8 8 7 9 13 5 4 11 10 6 6 4 3 4
5 5 5 4 5 5 5 5 4 4 4 3 4 5 5 5 5 4 5 6 6 5 6 7 8 10 9 8 8 8 8 8 8 7 5 3 6 5 4 3 3 3 2
5 5 6 5 5 4 5 5 5 4 4 4 4 6 5 5 5 5 5 6 6 6 7 6 7 10 11 9 8 9 9 9 9 9 7 6 4 3 2 3 3 1 2
6 6 6 5 5 5 5 5 5 5 4 4 6 6 5 5 4 6 7 8 6 7 7 6 7 10 10 10 8 8 10 8 7 7 5 3 3 3 4 3 3 2 1
6 6 6 6 6 5 5 5 5 5 5 4 5 6 6 4 9 9 8 7 6 7 8 8 7 10 9 12 12 9 8 8 8 6 3 5 5 4 3 4 4 3 2
6 6 6 6 6 6 5 5 5 5 4 5 4 4 5 5 8 10 9 5 5 6 8 8 8 6 9 10 11 12 10 10 4 4 7 4 4 6 6 4 3 3 2
6 6 6 6 7 6 6 5 4 3 4 4 4 4 5 4 10 9 10 7 6 7 7 7 9 9 7 9 9 6 4 3 1 1 3 4 3 7 6 4 4 6 4
7 7 6 6 7 7 6 6 3 4 3 2 3 5 6 5 7 10 8 7 8 9 7 6 8 8 8 10 7 6 3 2 5 4 4 3 5 10 8 6 4 4 3
8 8 7 7 9 8 7 7 4 3 4 4 4 3 6 6 6 9 7 5 7 5 4 5 9 8 8 7 5 4 4 4 5 6 5 6 6 5 7 3 6 6 4
8 7 7 6 8 8 7 4 5 5 5 5 5 3 4 4 6 7 8 5 5 5 5 4 4 9 9 4 5 4 2 6 7 6 5 5 5 6 3 2 3 5 4
8 8 7 6 5 6 9 5 5 7 6 5 5 4 3 1 4 7 9 7 7 6 5 3 3 6 6 8 5 5 8 6 6 6 6 4 5 5 5 7 9 9 7
8 8 7 7 5 6 7 7 5 5 6 5 3 3 3 3 2 5 6 7 8 4 3 4 8 8 9 6 3 7 8 4 6 5 5 4 4 7 9 9 10 12 13
10 7 7 8 6 5 4 6 7 6 4 5 4 4 2 2 3 3 3 4 7 5 7 6 6 6 5 5 5 4 4 4 5 6 5 6 7 6 6 5 8 8 9
10 7 7 6 8 7 5 5 7 7 9 8 6 6 6 4 5 7 8 5 4 6 8 4 2 2 3 3 2 3 3 4 5 5 7 7 8 7 6 6 7 5 7
10 7 7 7 6 7 7 4 7 1 9 6 6 9 6 8 12 13 11 7 12 15 3 3 3 4 5 5 4 4 3 5 5 7 7 8 9 8 8 5 6 7 8
14 10 7 8 8 8 7 8 7 2 4 7 9 10 10 12 13 13 11 9 11 8 3 4 5 7 7 7 6 6 5 5 5 7 7 7 7 7 8 8 7 7 8
13 15 10 9 8 8 9 9 8 7 7 4 4 7 8 5 8 9 16 13 4 3 3 5 7 7 7 7 7 6 5 5 6 7 7 7 7 9 9 8 7 8 7
13 11 12 10 9 9 8 8 8 8 8 4 3 2 5 7 8 12 16 5 8 8 8 7 6 7 7 7 7 7 7 7 7 7 7 8 8 9 9 8 8 10 11
13 15 13 10 9 9 8 9 8 8 7 7 6 8 6 6 5 6 7 7 6 7 7 8 8 6 7 8 7 7 6 6 7 8 8 8 8 9 10 10 10 11 8
11 11 15 10 11 11 10 10 9 9 9 8 9 8 12 9 9 8 8 9 9 9 9 9 8 9 8 7 6 8 10 9 9 9 9 8 8 9 7 7 5 5 8
12 12 12 13 10 11 11 10 10 10 10 9 9 6 12 8 7 8 9 9 10 10 9 9 8 8 9 10 11 9 9 9 9 10 10 11 9 8 7 5 8 7 5
8 12 12 11 11 10 8 9 10 10 10 10 9 7 8 9 9 9 9 9 8 9 9 9 9 8 8 9 10 11 13 15 15 15 15 13 12 13 12 8 5 8 4
11 11 14 12 10 10 11 11 10 11 11 10 9 9 9 10 11 12 10 8 8 9 9 9 9 12 9 9 9 9 9 9 9 13 19 17 16 17 14 12 8 7 5
8 9 11 11 11 11 10 10 9 10 11 10 10 10 9 8 9 9 8 7 7 8 9 9 7 9 11 14 11 11 10 14 16 18 14 16 18 17 13 12 12 8 8
7 9 8 9 9 10 10 10 10 9 9 9 8 8 9 10 9 7 6 7 6 6 6 6 7 10 12 11 14 15 17 19 20 22 18 18 17 13 11 13 15 9 10
Wind_Direction
159 160 190 163 152 163 154 143 146 137 146 148 118 108 112 106 110 110 108 113 105 117 106 110 106 115 110 100 104 96 99 107 106 103 106 117 111 112 103 98 116 130 146
161 166 188 159 143 166 157 156 148 141 157 171 133 118 118 119 120 127 130 93 99 89 103 101 96 103 101 99 98 100 108 103 114 119 119 123 125 122 116 121 147 128 139
153 157 152 162 142 155 162 155 143 138 140 131 122 120 127 129 120 108 103 95 87 87 96 104 118 117 110 110 112 114 108 107 110 105 103 82 101 107 105 110 115 105 100
151 150 152 161 143 143 141 133 128 138 134 127 124 122 122 121 116 108 97 95 90 88 90 98 105 115 121 123 113 109 111 114 118 122 107 85 91 93 98 128 133 139 114
154 156 163 133 122 125 126 125 128 130 127 126 117 119 126 121 121 116 107 112 91 90 88 89 78 100 109 121 126 123 124 124 124 119 107 104 113 144 165 153 106 93 90
161 167 150 132 129 130 132 138 134 132 129 127 128 135 138 128 137 124 127 129 115 112 102 98 103 97 96 99 103 91 111 132 129 130 125 143 146 146 142 132 125 157 156
167 161 152 144 135 143 139 134 137 141 139 132 121 132 135 135 143 144 127 129 112 110 114 121 114 114 113 107 91 94 101 107 101 125 140 144 143 165 144 134 158 157 121
171 168 153 151 143 144 133 134 123 122 143 137 132 136 128 127 152 136 121 122 118 109 119 123 125 115 102 114 115 117 112 84 75 138 161 174 175 159 156 154 145 114 100
175 174 167 156 151 151 148 151 146 131 126 138 144 138 131 144 144 134 122 126 127 126 123 119 126 120 126 124 116 117 87 93 46 111 89 102 144 141 143 124 125 121 89
183 183 167 156 154 164 157 161 146 134 134 130 123 141 130 145 161 149 134 125 120 120 90 106 99 120 131 134 107 127 150 161 136 114 110 82 95 149 150 77 151 142 134
179 160 161 164 163 162 151 157 141 130 120 116 111 117 133 160 168 171 148 135 131 134 142 143 152 143 153 161 113 144 159 135 119 119 114 95 78 91 96 80 123 131 134
162 163 164 172 161 144 159 148 142 134 130 134 126 106 94 103 147 185 174 142 146 139 156 161 155 171 166 167 177 176 122 128 127 116 110 105 106 104 90 89 88 83 69
157 170 165 158 163 153 147 144 136 142 147 156 154 149 147 134 136 181 189 161 163 146 155 164 144 157 156 160 194 139 146 159 135 138 146 138 130 117 110 96 91 91 74
172 177 159 159 157 156 141 156 153 160 158 162 164 173 165 155 162 159 168 151 128 97 101 89 96 98 84 104 110 155 183 182 159 151 146 128 128 135 134 135 116 108 95
174 173 167 166 169 164 152 170 177 187 176 175 192 174 166 192 213 182 165 167 171 131 110 100 104 106 132 152 147 165 169 156 149 138 143 143 147 147 140 134 130 123 117
172 171 178 169 172 169 163 145 47 27 207 219 176 171 198 197 173 180 188 158 133 143 102 148 174 180 181 184 180 177 188 181 167 156 156 158 156 154 145 140 130 124 122
175 173 169 172 176 174 178 181 187 58 112 182 190 200 190 185 177 188 179 129 157 152 150 171 185 192 202 198 192 189 188 187 153 164 164 163 153 147 146 143 124 115 113
175 166 170 181 185 185 189 194 195 191 196 183 204 195 215 198 195 164 136 120 131 245 200 192 205 199 199 198 197 202 191 170 179 170 167 160 155 150 146 140 135 129 124
172 174 180 179 182 182 184 187 194 194 198 166 138 142 112 137 139 146 167 181 184 197 208 217 209 198 197 195 199 198 191 184 177 168 164 159 156 153 145 140 137 145 145
184 174 173 176 173 180 183 187 190 192 192 192 191 201 140 131 176 179 194 203 199 206 205 215 216 208 199 194 188 184 179 166 172 174 168 161 159 156 152 150 154 156 161
178 170 173 174 182 186 186 192 193 196 201 201 210 187 176 182 195 188 191 200 208 212 211 212 212 210 202 187 184 183 181 176 174 166 161 155 153 149 144 126 81 75 104
174 172 177 189 182 186 193 191 192 195 199 200 210 184 171 200 195 197 200 203 208 213 213 211 215 209 195 187 181 175 181 178 172 165 156 147 128 114 101 97 110 113 100
196 170 181 186 190 183 176 189 192 196 202 206 202 178 181 201 210 209 208 209 205 207 208 207 211 207 195 193 191 188 184 181 177 167 160 148 138 131 122 120 131 117 128
168 203 177 183 180 183 186 191 195 198 201 200 198 197 195 200 206 213 212 206 204 209 206 207 213 212 198 192 189 190 188 175 165 163 152 146 138 134 131 133 135 119 129
182 192 194 177 177 184 187 192 198 202 206 202 204 206 203 202 207 210 213 205 199 198 207 208 208 206 188 185 179 166 132 135 145 144 140 134 129 135 140 135 136 148 134
200 179 216 175 173 178 186 190 197 194 210 209 205 211 205 210 214 209 203 197 198 203 193 191 191 184 171 169 156 142 143 140 141 142 137 134 136 140 144 139 151 147 146